Weather reports worldwide

Advertisment
San Sebastian/Igueldo, Spain (8027): temperature & dewpoint: 10.07.2018 18:00:00 - 16.07.2018 18:00:00 (CEST)San Sebastian/Igueldo, Spain (8027): wind speed: 10.07.2018 18:00:00 - 16.07.2018 18:00:00 (CEST)San Sebastian/Igueldo, Spain (8027): wind direction: 10.07.2018 18:00:00 - 16.07.2018 18:00:00 (CEST)San Sebastian/Igueldo, Spain (8027): reduced air pressure: 10.07.2018 18:00:00 - 16.07.2018 18:00:00 (CEST)San Sebastian/Igueldo, Spain (8027): visibility: 10.07.2018 18:00:00 - 16.07.2018 18:00:00 (CEST)
Date & Time tt [°C] td [°C] ff [km/h] ff [kn] dd ppp [hPa] vv [km]
16.07.2018 18:00:00 - - - - - - -
16.07.2018 17:00:00 - - - - - - -
16.07.2018 16:00:00 - - - - - - -
16.07.2018 15:00:00 - - - - - - -
16.07.2018 14:00:00 - - - - - - -
16.07.2018 13:00:00 - - - - - - -
16.07.2018 12:00:00 - - - - - - -
16.07.2018 11:00:00 - - - - - - -
16.07.2018 10:00:00 - - - - - - -
16.07.2018 09:00:00 - - - - - - -
16.07.2018 08:00:00 - - - - - - -
16.07.2018 07:00:00 - - - - - - -
16.07.2018 06:00:00 - - - - - - -
16.07.2018 05:00:00 - - - - - - -
16.07.2018 04:00:00 - - - - - - -
16.07.2018 03:00:00 - - - - - - -
16.07.2018 02:00:00 - - - - - - -
16.07.2018 01:00:00 - - - - - - -
16.07.2018 00:00:00 - - - - - - -
15.07.2018 23:00:00 - 19,1 181 98 N 1016,8 25
15.07.2018 22:00:00 - - - - - - -
15.07.2018 21:00:00 - - - - - - -
15.07.2018 20:00:00 21,6 20,8 18 10 N 1015,2 12
15.07.2018 19:00:00 - - - - - - -
15.07.2018 18:00:00 - - - - - - -
15.07.2018 17:00:00 23,7 19,2 11 6 W 1014,6 30
15.07.2018 16:00:00 - - - - - - -
15.07.2018 15:00:00 - - - - - - -
15.07.2018 14:00:00 23,2 20,5 4 2 W 1016,0 30
15.07.2018 13:00:00 - - - - - - -
15.07.2018 12:00:00 - - - - - - -
15.07.2018 11:00:00 22,4 19,0 0 0 N 1015,7 30
15.07.2018 10:00:00 - - - - - - -
15.07.2018 09:00:00 - - - - - - -
15.07.2018 08:00:00 - - - - - - -
15.07.2018 07:00:00 - - - - - - -
15.07.2018 06:00:00 - - - - - - -
15.07.2018 05:00:00 - - - - - - -
15.07.2018 04:00:00 - - - - - - -
15.07.2018 03:00:00 - - - - - - -
15.07.2018 02:00:00 - - - - - - -
15.07.2018 01:00:00 - - - - - - -
15.07.2018 00:00:00 - - - - - - -
14.07.2018 23:00:00 23,1 23,1 11 6 N 1016,8 20
14.07.2018 22:00:00 - - - - - - -
14.07.2018 21:00:00 - - - - - - -
14.07.2018 20:00:00 21,6 20,4 11 6 E 1017,3 20
14.07.2018 19:00:00 - - - - - - -
14.07.2018 18:00:00 - - - - - - -
14.07.2018 17:00:00 23,8 20,1 11 6 NNW 1015,9 20
14.07.2018 16:00:00 - - - - - - -
14.07.2018 15:00:00 - - - - - - -
14.07.2018 14:00:00 22,2 20,7 13 7 NNE 1016,8 9
14.07.2018 13:00:00 - - - - - - -
14.07.2018 12:00:00 - - - - - - -
14.07.2018 11:00:00 22,4 20,3 11 6 NNE 1017,0 12
14.07.2018 10:00:00 - - - - - - -
14.07.2018 09:00:00 - - - - - - -
14.07.2018 08:00:00 19,6 17,9 11 6 N 1016,5 15
14.07.2018 07:00:00 - - - - - - -
14.07.2018 06:00:00 - - - - - - -
14.07.2018 05:00:00 18,6 17,6 18 10 WSW 1016,5 25
14.07.2018 04:00:00 - - - - - - -
14.07.2018 03:00:00 - - - - - - -
14.07.2018 02:00:00 20,2 19,2 21 11 NNW 1018,6 8
14.07.2018 01:00:00 - - - - - - -
14.07.2018 00:00:00 - - - - - - -
13.07.2018 23:00:00 20,4 18,9 5 3 W 1018,2 11
13.07.2018 22:00:00 - - - - - - -
13.07.2018 21:00:00 - - - - - - -
13.07.2018 20:00:00 21,0 19,1 5 3 E 1017,1 11
13.07.2018 19:00:00 - - - - - - -
13.07.2018 18:00:00 - - - - - - -
13.07.2018 17:00:00 22,0 17,8 9 5 NNE 1017,4 11
13.07.2018 16:00:00 - - - - - - -
13.07.2018 15:00:00 - - - - - - -
13.07.2018 14:00:00 21,4 17,2 15 8 NE 1017,9 30
13.07.2018 13:00:00 - - - - - - -
13.07.2018 12:00:00 - - - - - - -
13.07.2018 11:00:00 18,5 15,7 4 2 SW 1018,4 30
13.07.2018 10:00:00 - - - - - - -
13.07.2018 09:00:00 - - - - - - -
13.07.2018 08:00:00 17,4 15,0 2 1 SSE 1018,4 30
13.07.2018 07:00:00 - - - - - - -
13.07.2018 06:00:00 - - - - - - -
13.07.2018 05:00:00 16,4 14,6 8 4 WSW 1018,6 45
13.07.2018 04:00:00 - - - - - - -
13.07.2018 03:00:00 - - - - - - -
13.07.2018 02:00:00 17,5 15,0 4 2 SW 1018,9 50
13.07.2018 01:00:00 - - - - - - -
13.07.2018 00:00:00 - - - - - - -
12.07.2018 23:00:00 18,6 14,9 5 3 ESE 1018,6 45
12.07.2018 22:00:00 - - - - - - -
12.07.2018 21:00:00 - - - - - - -
12.07.2018 20:00:00 21,2 14,1 9 5 ENE 1017,6 30
12.07.2018 19:00:00 - - - - - - -
12.07.2018 18:00:00 - - - - - - -
12.07.2018 17:00:00 21,6 17,2 11 6 NE 1017,6 30
12.07.2018 16:00:00 - - - - - - -
12.07.2018 15:00:00 - - - - - - -
12.07.2018 14:00:00 18,1 17,3 5 3 NE 1018,2 10
12.07.2018 13:00:00 - - - - - - -
12.07.2018 12:00:00 - - - - - - -
12.07.2018 11:00:00 19,9 17,7 11 6 N 1017,6 1,0
12.07.2018 10:00:00 - - - - - - -
12.07.2018 09:00:00 - - - - - - -
12.07.2018 08:00:00 20,3 19,6 26 14 N 1015,9 12
12.07.2018 07:00:00 - - - - - - -
12.07.2018 06:00:00 - - - - - - -
12.07.2018 05:00:00 20,4 18,9 13 7 NNW 1015,3 25
12.07.2018 04:00:00 - - - - - - -
12.07.2018 03:00:00 - - - - - - -
12.07.2018 02:00:00 21,0 18,2 8 4 N 1015,7 35
12.07.2018 01:00:00 - - - - - - -
12.07.2018 00:00:00 - - - - - - -
11.07.2018 23:00:00 21,2 17,6 9 5 ENE 1015,7 25
11.07.2018 22:00:00 - - - - - - -
11.07.2018 21:00:00 - - - - - - -
11.07.2018 20:00:00 22,2 19,2 11 6 E 1014,9 20
11.07.2018 19:00:00 - - - - - - -
11.07.2018 18:00:00 - - - - - - -
11.07.2018 17:00:00 22,5 20,6 16 9 NE 1015,8 12
11.07.2018 16:00:00 - - - - - - -
11.07.2018 15:00:00 - - - - - - -
11.07.2018 14:00:00 21,8 19,7 18 10 NNE 1016,8 20
11.07.2018 13:00:00 - - - - - - -
11.07.2018 12:00:00 - - - - - - -
11.07.2018 11:00:00 21,0 18,8 11 6 N 1017,3 20
11.07.2018 10:00:00 - - - - - - -
11.07.2018 09:00:00 - - - - - - -
11.07.2018 08:00:00 18,8 18,5 9 5 NNW 1017,5 20
11.07.2018 07:00:00 - - - - - - -
11.07.2018 06:00:00 - - - - - - -
11.07.2018 05:00:00 19,4 18,7 13 7 NNW 1017,9 20
11.07.2018 04:00:00 - - - - - - -
11.07.2018 03:00:00 - - - - - - -
11.07.2018 02:00:00 20,2 19,5 5 3 N 1018,7 20
11.07.2018 01:00:00 - - - - - - -
11.07.2018 00:00:00 - - - - - - -
10.07.2018 23:00:00 21,2 20,2 9 5 N 1018,8 10
10.07.2018 22:00:00 - - - - - - -
10.07.2018 21:00:00 - - - - - - -
10.07.2018 20:00:00 21,8 20,6 15 8 NNE 1018,5 15
10.07.2018 19:00:00 - - - - - - -
10.07.2018 18:00:00 - - - - - - -

tt = temperature
td = dewpoint
ff = wind speed
dd = wind direction
ppp = reduced air pressure
vv = visibility

Next stations